#timestamp,LO_Frequency,Hit,StdDev 
1562374815.3,286046997.5,N
1562374835.1,286046996.4,N
1562374855.9,286046993.9,Y
1562374875.7,286046996.2,P
1562374895.5,286046993.4,P
1562374915.4,286046994.1,N
1562374935.2,286046994.2,N
1562374955.0,286046995.6,N
1562374955.9,286046995.6,N
1562374975.8,286046997.7,N
1562374995.6,286046998.7,N
1562375015.5,286046999.2,N
1562375035.3,286046999.4,N
1562375055.1,286046996.5,N
1562375075.9,286046998.1,N
1562375095.7,286047000.5,N
1562375115.5,286047001.2,N
1562375135.4,286046999.8,N
1562375155.2,286046998.6,N
1562375175.1,286046999.6,N
1562375176.0,286046999.6,N
1562375195.8,286046996.7,N
1562375215.6,286046998.5,N
1562375235.5,286047000.0,N
1562375255.3,286047000.3,N
1562375275.1,286047000.8,N
1562375295.9,286046998.2,N
1562375315.7,286046998.3,N
1562375335.6,286046998.9,N
1562375355.4,286046998.7,N
1562375375.2,286046999.3,N
1562375395.1,286046999.4,N
1562375396.0,286046999.4,N
1562375415.8,286047000.9,N
1562375435.6,286046998.3,N
1562375455.5,286047000.5,N
1562375475.3,286046998.5,N
1562375495.2,286046999.7,N
1562375515.9,286047002.2,N
1562375535.7,286047000.2,N
1562375555.6,286047001.1,N
1562375575.4,286047000.4,N
1562375595.2,286047001.0,N
1562375615.1,286047002.2,N
1562375616.0,286047002.2,N
1562375635.8,286047004.4,Y
1562375655.7,286047002.5,P
1562375675.5,286047002.0,N
1562375695.3,286047003.9,P
1562375715.2,286047003.8,N
1562375735.0,286047005.9,Y
1562375735.9,286047005.9,P
1562375755.8,286047001.9,N
1562375775.6,286047000.1,N
1562375795.4,286046999.8,N
1562375815.3,286046999.0,N
1562375835.1,286046999.3,N
1562375855.8,286046999.1,N
1562375875.7,286046999.6,N
1562375895.5,286046997.3,N
1562375915.4,286046996.8,N
1562375935.2,286046996.8,N
1562375955.0,286046999.1,N
1562375955.9,286046999.1,N
1562375975.8,286046999.3,N
1562375995.6,286046999.2,N
1562376015.4,286046996.9,N
1562376035.3,286047001.2,N
1562376055.1,286046998.9,N
1562376075.9,286046998.6,N
1562376095.7,286046999.3,N
1562376115.5,286046999.4,N
1562376135.4,286046998.4,N
1562376155.2,286046998.7,N
1562376175.0,286046999.2,N
1562376175.9,286046999.2,N
1562376195.8,286046998.4,N
1562376215.6,286046999.2,N
1562376235.5,286046994.9,N
1562376255.3,286046995.1,N
1562376275.1,286046995.0,N
1562376295.9,286046997.4,N
1562376315.7,286046997.2,N
1562376335.5,286046997.6,N
1562376385.4,286046997.1,E
1562376395.3,286047000.0,N
1562376415.2,286047003.5,P
1562376435.0,286047003.5,N
1562376435.9,286047003.5,N
1562376455.8,286047003.9,N
1562376475.6,286047001.9,N
1562376495.4,286047003.3,N
1562376515.3,286047002.9,N
1562376535.1,286047003.4,N
1562376555.8,286047005.6,Y
1562376575.7,286047000.2,P
1562376595.5,286047001.0,N
1562376615.4,286047001.1,N
1562376635.2,286046999.8,N
1562376655.0,286047002.2,N
1562376655.9,286047002.2,N
1562376675.8,286047001.7,N
1562376695.6,286047002.2,N
1562376715.4,286047004.2,Y
1562376735.3,286047002.3,P
1562376755.1,286047002.1,P
1562376775.9,286047001.3,P
1562376795.7,286047000.1,N
1562376815.5,286047001.9,N
1562376835.4,286047001.6,N
1562376855.2,286047001.4,N
1562376875.0,286047001.8,N
1562376876.0,286047001.8,N
1562376895.8,286047001.0,N
1562376915.6,286047000.4,N
1562376935.5,286047002.4,Y
1562376955.3,286047001.1,P
1562376975.1,286047001.2,P
1562376995.9,286046997.3,P
1562377015.7,286046994.9,N
1562377035.6,286046996.4,N
1562377055.4,286046998.0,N
1562377075.2,286046997.5,N
1562377095.1,286046995.2,N
1562377096.0,286046995.2,N
1562377115.8,286046997.7,N
1562377135.6,286046995.8,N
1562377155.5,286046997.8,N
1562377175.3,286046998.7,N
1562377195.1,286047001.2,N
1562377215.9,286047000.9,N
1562377235.7,286047000.9,N
1562377255.6,286047000.5,N
1562377275.4,286046999.8,N
1562377295.2,286047002.8,N
1562377315.1,286046998.1,N
1562377316.0,286046998.1,N
1562377335.8,286047000.5,N
1562377355.7,286047000.2,N
1562377375.5,286047000.5,N
1562377395.3,286046999.1,N
1562377415.2,286046999.1,N
1562377435.9,286046998.3,N
1562377455.7,286046999.0,N
1562377475.6,286046998.8,N
1562377495.4,286046996.6,N
1562377515.3,286046998.5,N
1562377535.1,286046998.1,N
1562377536.0,286046998.1,N
1562377555.8,286046999.3,N
1562377575.7,286046997.1,N
1562377595.5,286046999.0,N
1562377615.3,286046998.9,N
1562377635.2,286046999.1,N
1562377655.0,286046996.6,N
1562377655.9,286046996.6,N
1562377675.8,286046997.2,N
1562377695.6,286046997.9,N
1562377715.4,286046996.8,N
1562377735.3,286046999.0,N
1562377755.1,286046998.4,N
1562377775.8,286046998.4,N
1562377795.7,286046998.6,N
1562377815.5,286047000.8,N
1562377835.4,286046999.8,N
1562377855.2,286046999.8,N
1562377875.0,286047000.3,N
1562377875.9,286047000.3,N
1562377895.8,286047000.0,N
1562377915.6,286046998.7,N
1562377935.4,286046999.5,N
1562377955.3,286046999.0,N
1562377975.1,286046998.7,N
1562377995.9,286047001.2,N
1562378015.7,286047000.9,N
1562378035.5,286046998.4,N
1562378055.4,286046998.3,N
1562378075.2,286046999.3,N
1562378095.0,286046998.5,N
1562378095.9,286046998.5,N
1562378115.8,286046998.4,N
1562378135.6,286046998.6,N
1562378155.5,286047001.2,N
1562378175.3,286047001.0,N
1562378195.1,286046998.4,N
1562378215.9,286046998.2,N
1562378235.7,286046999.0,N
1562378255.5,286046997.3,N
1562378275.4,286046996.9,N
1562378295.2,286046998.6,N
1562378315.1,286046998.8,N
1562378316.0,286046998.8,N
1562378335.8,286046998.3,N
1562378355.6,286046998.7,N
1562378375.5,286046998.9,N
1562378395.3,286046998.3,N
